DW1345 Weather Reports


time (UTC)temp
C
wind
direction
speed
KPH
gust
KPH
rain 1hr
cm
rain 24hr
cm
rain mn
cm
humidity
%
barometer
mb
20221208003051 -4 166 1.6 0.0 0.00 0.00 0.00 77 1004.0
20221208001549 -4 184 0.0 0.0 0.00 0.00 0.00 75 1004.1
20221208000048 -4 184 1.6 0.0 0.00 0.00 0.00 74 1003.9
20221207234544 -3 183 0.0 0.0 0.00 0.00 0.00 74 1003.7
20221207233053 -3 182 4.8 0.0 0.00 0.00 0.00 75 1003.7
20221207231542 -3 62 1.6 0.0 0.00 0.00 0.00 75 1003.6
20221207230036 -2 36 4.8 0.0 0.00 0.00 0.00 76 1003.5
20221207224536 -3 78 4.8 0.0 0.00 0.00 0.00 73 1003.4
20221207223035 -3 74 3.2 0.0 0.00 0.00 0.00 72 1003.3
20221207221534 -3 37 3.2 0.0 0.00 0.00 0.00 70 1003.3
20221207220043 -3 34 3.2 0.0 0.00 0.00 0.00 71 1003.3
20221207214536 -3 36 3.2 0.0 0.00 0.00 0.00 69 1003.0
20221207213033 -3 42 4.8 0.0 0.00 0.00 0.00 70 1003.0
20221207211531 -3 52 6.4 0.0 0.00 0.00 0.00 70 1003.0
20221207210030 -2 82 9.7 0.0 0.00 0.00 0.00 70 1002.8
20221207204531 -2 81 8.0 0.0 0.00 0.00 0.00 71 1002.9
20221207203029 -2 115 11.3 0.0 0.00 0.00 0.00 75 1002.8
20221207201529 -3 83 3.2 0.0 0.00 0.00 0.00 76 1002.6
20221207200028 -2 85 4.8 0.0 0.00 0.00 0.00 77 1002.8
20221207194527 -2 70 4.8 0.0 0.00 0.00 0.00 77 1002.8
20221207193026 -2 81 8.0 0.0 0.00 0.00 0.00 78 1002.7
20221207191539 -2 59 4.8 0.0 0.00 0.00 0.00 78 1002.8
20221207190033 -2 88 1.6 0.0 0.00 0.00 0.00 79 1002.8
20221207184525 -3 68 1.6 0.0 0.00 0.00 0.00 79 1002.7
20221207183027 -3 68 1.6 0.0 0.00 0.00 0.00 79 1002.8
20221207181525 -3 69 4.8 0.0 0.00 0.00 0.00 80 1002.9
20221207180024 -3 72 3.2 0.0 0.00 0.00 0.00 81 1002.8
20221207174529 -3 73 1.6 0.0 0.00 0.00 0.00 81 1002.8
20221207173024 -4 74 1.6 0.0 0.00 0.00 0.00 80 1002.8
20221207171535 -4 74 1.6 0.0 0.00 0.00 0.00 79 1002.8
20221207170021 -5 74 0.0 0.0 0.00 0.00 0.00 79 1002.6
20221207164526 -5 74 0.0 0.0 0.00 0.00 0.00 78 1002.5
20221207163019 -5 74 0.0 0.0 0.00 0.00 0.00 76 1002.6
20221207161529 -4 74 0.0 0.0 0.00 0.00 0.00 76 1002.5
20221207160017 -3 74 3.2 0.0 0.00 0.00 0.00 76 1002.4
20221207154518 -3 78 4.8 0.0 0.00 0.00 0.00 75 1002.3
20221207153015 -3 81 4.8 0.0 0.00 0.00 0.00 74 1002.3
20221207151516 -3 84 9.7 0.0 0.00 0.00 0.00 75 1002.3
20221207150012 -3 119 0.0 0.0 0.00 0.00 0.00 75 1002.2
20221207144511 -3 116 0.0 0.0 0.00 0.00 0.00 74 1002.2
20221207143010 -3 116 6.4 0.0 0.00 0.00 0.00 74 1002.0
20221207141522 -3 90 8.0 0.0 0.00 0.00 0.00 74 1002.0
20221207140008 -3 115 9.7 0.0 0.00 0.00 0.00 77 1001.9
20221207134506 -5 53 3.2 0.0 0.00 0.00 0.00 78 1002.1
20221207133004 -6 53 3.2 0.0 0.00 0.00 0.00 77 1002.0
20221207131502 -6 52 1.6 0.0 0.00 0.00 0.00 75 1001.9
20221207130100 -5 52 3.2 0.0 0.00 0.00 0.00 74 1001.9
20221207124556 -5 52 1.6 0.0 0.00 0.00 0.00 73 1001.7
20221207123055 -4 51 1.6 0.0 0.00 0.00 0.00 70 1001.6
20221207121550 -3 49 1.6 0.0 0.00 0.00 0.00 68 1001.5
20221207120100 -3 61 3.2 0.0 0.00 0.00 0.00 68 1001.5
20221207114549 -3 71 1.6 0.0 0.00 0.00 0.00 68 1001.2
20221207113045 -3 72 0.0 0.0 0.00 0.00 0.00 66 1001.3
20221207111542 -3 72 0.0 0.0 0.00 0.00 0.00 66 1001.2
20221207110041 -2 72 0.0 0.0 0.00 0.00 0.00 64 1001.1
20221207104538 -2 72 0.0 0.0 0.00 0.00 0.00 62 1000.9
20221207103037 -1 73 6.4 0.0 0.00 0.00 0.00 60 1000.9
20221207101547 -1 91 9.7 0.0 0.00 0.00 0.00 58 1000.7
20221207100035 -1 84 9.7 0.0 0.00 0.00 0.00 61 1000.6
20221207094534 -1 124 14.5 0.0 0.00 0.00 0.00 61 1000.4
20221207093033 -1 84 8.0 0.0 0.00 0.00 0.00 62 1000.5
20221207091531 -1 99 9.7 0.0 0.00 0.00 0.00 60 1000.6
20221207090030 -2 103 9.7 0.0 0.00 0.00 0.00 60 1000.5
20221207084530 -2 111 9.7 0.0 0.00 0.00 0.00 60 1000.4
20221207083029 -1 79 11.3 0.0 0.00 0.00 0.00 60 1000.3
20221207081539 -1 82 12.9 0.0 0.00 0.00 0.00 61 1000.2
20221207080025 -2 77 11.3 0.0 0.00 0.00 0.00 62 1000.0
20221207074539 -1 61 12.9 0.0 0.00 0.00 0.00 60 999.8
20221207073022 -1 72 8.0 0.0 0.00 0.00 0.00 63 999.7
20221207071520 -2 52 8.0 0.0 0.00 0.00 0.00 66 999.7
20221207070022 -2 105 6.4 0.0 0.00 0.00 0.00 68 999.5
20221207064519 -2 71 8.0 0.0 0.00 0.00 0.00 69 999.2
20221207063018 -2 77 8.0 0.0 0.00 0.00 0.00 69 999.2
20221207061516 -2 69 4.8 0.0 0.00 0.00 0.00 71 999.0
20221207060023 -2 74 8.0 0.0 0.00 0.00 0.00 71 998.8
20221207054521 -1 54 9.7 0.0 0.00 0.00 0.00 72 998.6
20221207053013 -2 51 6.4 0.0 0.00 0.00 0.00 75 998.4
20221207051512 -1 51 8.0 0.0 0.00 0.00 0.00 75 998.3
20221207050010 -1 77 8.0 0.0 0.00 0.00 0.00 75 998.2
20221207044509 -1 75 12.9 0.0 0.00 0.00 0.00 76 998.2
20221207043008 -1 75 12.9 0.0 0.00 0.00 0.00 76 998.1
20221207041506 -1 100 16.1 0.0 0.00 0.00 0.00 78 998.1
20221207040005 -1 94 17.7 0.0 0.00 0.00 0.00 79 998.0
20221207034503 -1 76 16.1 0.0 0.00 0.00 0.00 81 998.0
20221207033002 -1 84 14.5 0.0 0.00 0.00 0.00 83 998.1
20221207031501 -1 115 16.1 0.0 0.00 0.00 0.00 84 998.1
20221207030109 -1 66 17.7 0.0 0.00 0.00 0.00 86 998.2
20221207024558 -1 59 16.1 0.0 0.00 0.00 0.00 87 998.2
20221207023106 -1 81 16.1 0.0 0.00 0.00 0.00 88 998.3
20221207021605 -1 117 14.5 0.0 0.00 0.00 0.00 90 998.3
20221207020054 -1 80 14.5 0.0 0.00 0.00 0.00 91 998.4
20221207014558 -1 78 17.7 0.0 0.00 0.00 0.00 90 998.3
20221207013059 -1 85 16.1 0.0 0.00 0.00 0.00 91 998.4
20221207011550 -1 184 17.7 0.0 0.00 0.00 0.00 90 998.4
20221207010050 -1 86 12.9 0.0 0.00 0.00 0.00 89 998.5
20221207004547 -1 103 11.3 0.0 0.00 0.00 0.00 89 998.7